Location: Bats
(43.6587°N, 0.4584°W)
Time: 15:26:08
(UTC+00:00)

Cosmos 2366 rocket - Pass Details

Date: 12 January 2026
Orbit: 955 x 996 km, 82.9° (Epoch: 17 February)

Event Time Altitude Azimuth Distance (km) Brightness Sun altitude
Rises 17:44:31 0° 355° (N) 3,710 6.9 -10.3°
Reaches altitude 10° 17:47:05 10° 359° (N) 2,762 6.2 -10.7°
Maximum altitude 17:53:22 60° 79° (E) 1,131 4.1 -11.8°
Drops below altitude 10° 17:59:36 10° 159° (SSE) 2,754 6.3 -12.8°
Sets 18:02:10 0° 163° (SSE) 3,698 7.0 -13.3°
